Location: Newark
(20.0000°S, 47.0000°E)
Time: 10:37:48
(UTC+00:00)

Envisat - Visible Passes

Search period start: 18 June 2019 00:00
Search period end: 28 June 2019 00:00
Orbit: 764 x 766 km, 98.1° (Epoch: 18 June)

Date Brightness Start Highest point End Pass type
(mag) Time Alt. Az. Time Alt. Az. Time Alt. Az.
18 Jun 3.1 15:37:31 22° SSE 15:40:39 53° E 15:45:35 10° N visible
18 Jun 5.9 17:18:02 10° WSW 17:19:08 11° WSW 17:20:12 10° W visible
19 Jun 5.4 02:39:52 10° ENE 02:43:43 22° ESE 02:47:35 10° SSE visible
19 Jun 4.3 15:00:16 10° SE 15:03:50 20° E 15:07:28 10° NE visible
19 Jun 4.7 16:40:29 21° SW 16:42:42 29° WSW 16:47:01 10° NW visible
20 Jun 3.1 16:03:14 26° S 16:06:08 77° WSW 16:11:11 10° NNW visible
21 Jun 3.5 15:26:00 18° SE 15:29:25 39° E 15:34:07 10° NNE visible
21 Jun 5.6 17:06:11 12° SW 17:08:01 15° WSW 17:10:44 10° WNW visible
22 Jun 5.6 02:29:24 10° ENE 02:32:34 17° ESE 02:35:44 10° SSE visible
22 Jun 4.6 14:49:48 10° ESE 14:52:34 15° E 14:55:19 10° NE visible
22 Jun 4.3 16:28:57 23° SSW 16:31:32 38° WSW 16:36:12 10° NW visible
23 Jun 2.9 15:51:42 23° SSE 15:54:55 80° ENE 15:59:59 10° N visible
24 Jun 4.8 02:53:24 10° NE 02:57:53 32° ESE 03:02:24 10° SSE visible
24 Jun 3.8 15:14:27 13° SE 15:18:09 29° E 15:22:32 10° NNE visible
24 Jun 5.3 16:54:39 15° SW 16:56:53 19° WSW 17:00:26 10° WNW visible
25 Jun 5.8 02:19:25 10° E 02:21:27 12° ESE 02:23:28 10° SE visible
25 Jun 3.7 16:17:23 23° S 16:20:21 51° WSW 16:25:15 10° NNW visible
26 Jun 3.0 15:40:09 19° SSE 15:43:41 59° E 15:48:40 10° N visible
27 Jun 5.2 02:42:39 10° NE 02:46:44 25° ESE 02:50:48 10° SSE visible
27 Jun 4.2 15:02:59 10° SE 15:06:54 22° E 15:10:46 10° NNE visible
27 Jun 4.9 16:43:05 17° SSW 16:45:44 26° WSW 16:49:52 10° NW visible
